DAL8817 KDTW-KLAS

Flight info

Callsign DAL8817
Flight time N/A
Altitude 30000
Route KAYLN3 SMUUV DCT OBK DCT IOW J60 HCT/N0461F320 J60 HVE DCT GGAPP CHOWW4
Aircraft B739/M-SDE2E3FGHIRWXY/LB1

Departure

Time 2026-05-04 19:57
Airport Detroit Metropolitan Wayne County Airport (KDTW)

Arrival

Time N/A
Airport Harry Reid International Airport (KLAS)
Time Latitude Longitude Altitude Speed Heading
2026-05-04 19:29 42.21321 -83.35512 646 ft 0 kts 119°
2026-05-04 19:47 42.21332 -83.35539 646 ft 4 kts 119°
2026-05-04 19:47 42.21343 -83.35564 646 ft 4 kts 116°
2026-05-04 19:47 42.21350 -83.35597 646 ft 4 kts 83°
2026-05-04 19:48 42.21340 -83.35623 646 ft 3 kts 29°
2026-05-04 19:48 42.21320 -83.35638 646 ft 1 kts 29°
2026-05-04 19:48 42.21320 -83.35639 646 ft 0 kts 29°
2026-05-04 19:53 42.21350 -83.35616 646 ft 14 kts 28°
2026-05-04 19:53 42.21477 -83.35522 647 ft 25 kts 28°
2026-05-04 19:53 42.21540 -83.35400 648 ft 24 kts 77°
2026-05-04 19:53 42.21554 -83.35227 646 ft 22 kts 86°
2026-05-04 19:54 42.21606 -83.35027 646 ft 25 kts 49°
2026-05-04 19:54 42.21735 -83.34854 647 ft 27 kts 43°
2026-05-04 19:54 42.21832 -83.34643 647 ft 27 kts 89°
2026-05-04 19:54 42.21927 -83.34449 646 ft 26 kts 31°
2026-05-04 19:55 42.22069 -83.34326 646 ft 9 kts 40°
2026-05-04 19:55 42.22165 -83.34272 647 ft 23 kts 27°
2026-05-04 19:55 42.22359 -83.34133 646 ft 43 kts 28°
2026-05-04 19:55 42.22632 -83.33931 648 ft 44 kts 28°
2026-05-04 19:56 42.22835 -83.33770 645 ft 21 kts 48°
2026-05-04 19:56 42.22795 -83.33647 644 ft 16 kts 184°
2026-05-04 19:56 42.22654 -83.33743 646 ft 46 kts 208°
2026-05-04 19:56 42.22164 -83.34105 645 ft 112 kts 208°
2026-05-04 19:57 42.21319 -83.34727 658 ft 162 kts 208°
2026-05-04 19:57 42.20267 -83.35490 1024 ft 184 kts 208°
2026-05-04 19:57 42.19156 -83.36416 1772 ft 189 kts 219°
2026-05-04 19:57 42.18266 -83.37868 2339 ft 202 kts 234°
2026-05-04 19:58 42.17462 -83.39447 2938 ft 212 kts 233°
2026-05-04 19:58 42.16583 -83.41129 3355 ft 222 kts 233°
2026-05-04 19:58 42.15648 -83.42887 3670 ft 240 kts 232°
2026-05-04 19:58 42.14662 -83.44713 4353 ft 241 kts 232°
2026-05-04 19:59 42.13665 -83.46542 5102 ft 242 kts 233°
2026-05-04 19:59 42.12669 -83.48353 5912 ft 241 kts 234°
2026-05-04 19:59 42.11662 -83.50172 6573 ft 244 kts 234°
2026-05-04 19:59 42.10642 -83.52007 6940 ft 247 kts 234°
2026-05-04 20:00 42.09795 -83.53989 6983 ft 248 kts 257°
2026-05-04 20:00 42.09750 -83.56327 7543 ft 252 kts 272°
2026-05-04 20:00 42.10144 -83.58639 8307 ft 255 kts 285°
2026-05-04 20:00 42.10838 -83.60854 9013 ft 258 kts 289°
2026-05-04 20:01 42.11608 -83.63052 9662 ft 261 kts 290°
2026-05-04 20:01 42.12401 -83.65294 10064 ft 272 kts 290°
2026-05-04 20:01 42.13238 -83.67686 10209 ft 293 kts 290°
2026-05-04 20:01 42.14130 -83.70255 10367 ft 312 kts 290°
2026-05-04 20:02 42.15072 -83.72986 10507 ft 330 kts 291°
2026-05-04 20:02 42.16063 -83.75867 10627 ft 347 kts 291°